When you browse on this site, cookies collect data to enhance your experience and personalize the content and advertising you see.
Visit our Privacy Policy to learn more. By continuing to use the site, you agree to this use of cookies and data.
  • In United Kingdom
  • List of Countries
  • For 7 days
  • Water Temperature
  • Satellite Maps
  • Weather Map
  • Weather Widgets
  • user-avatar
    Login

    Hourly Weather Santa Maria Huazolotitlan

    Today, 24 January, Thursday

    Time Temperature Precipitation Wind Pressure Humidity
    00:00 +24°C° 0 mm 1 mps 737 mmHg 66%
    01:00 +24°C° 0 mm 1 mps 737 mmHg 65%
    02:00 +24°C° 0 mm 1 mps 737 mmHg 64%
    03:00 +24°C° 0 mm 1 mps 737 mmHg 64%
    04:00 +23°C° 0 mm 1 mps 737 mmHg 63%
    05:00 +23°C° 0 mm 1 mps 737 mmHg 63%
    06:00 +25°C° 0 mm 1 mps 737 mmHg 58%
    07:00 +27°C° 0 mm 1 mps 738 mmHg 54%
    08:00 +28°C° 0 mm 1 mps 738 mmHg 49%
    09:00 +30°C° 0 mm 1 mps 738 mmHg 45%
    10:00 +32°C° 0 mm 1 mps 738 mmHg 40%
    11:00 +35°C° 0 mm 2 mps 738 mmHg 35%
    12:00 +35°C° 0 mm 2 mps 737 mmHg 37%
    13:00 +35°C° 0 mm 3 mps 737 mmHg 38%
    14:00 +35°C° 0 mm 4 mps 736 mmHg 40%
    15:00 +33°C° 0 mm 3 mps 736 mmHg 47%
    16:00 +31°C° 0 mm 2 mps 736 mmHg 55%
    17:00 +29°C° 0 mm 2 mps 736 mmHg 63%
    18:00 +28°C° 0 mm 1 mps 736 mmHg 68%
    19:00 +26°C° 0 mm 1 mps 737 mmHg 74%
    20:00 +25°C° 0 mm 1 mps 737 mmHg 79%
    21:00 +25°C° 0 mm 1 mps 738 mmHg 79%
    22:00 +24°C° 0 mm 1 mps 738 mmHg 79%
    23:00 +24°C° 0 mm 1 mps 738 mmHg 78%

    Tomorrow, 25 January, Friday

    Time Temperature Precipitation Wind Pressure Humidity
    00:00 +24°C° 0 mm 1 mps 738 mmHg 77%
    01:00 +24°C° 0 mm 1 mps 737 mmHg 75%
    02:00 +23°C° 0 mm 1 mps 737 mmHg 74%
    03:00 +23°C° 0 mm 1 mps 737 mmHg 72%
    04:00 +23°C° 0 mm 1 mps 737 mmHg 70%
    05:00 +23°C° 0 mm 1 mps 737 mmHg 69%
    06:00 +25°C° 0 mm 1 mps 738 mmHg 62%
    07:00 +27°C° 0 mm 1 mps 738 mmHg 56%
    08:00 +28°C° 0 mm 1 mps 739 mmHg 50%
    09:00 +30°C° 0 mm 1 mps 739 mmHg 47%
    10:00 +32°C° 0 mm 2 mps 739 mmHg 43%
    11:00 +35°C° 0 mm 3 mps 739 mmHg 40%
    12:00 +34°C° 0 mm 3 mps 738 mmHg 43%
    13:00 +34°C° 0 mm 3 mps 737 mmHg 47%
    14:00 +34°C° 0 mm 4 mps 736 mmHg 50%
    15:00 +31°C° 0 mm 3 mps 736 mmHg 57%
    16:00 +30°C° 0 mm 2 mps 736 mmHg 64%
    17:00 +28°C° 0 mm 1 mps 736 mmHg 71%
    18:00 +27°C° 0.1 mm 1 mps 737 mmHg 76%
    19:00 +26°C° 0.1 mm 1 mps 738 mmHg 82%
    20:00 +25°C° 0.1 mm 1 mps 738 mmHg 87%
    21:00 +25°C° 0 mm 1 mps 739 mmHg 88%
    22:00 +24°C° 0 mm 1 mps 739 mmHg 89%
    23:00 +24°C° 0 mm 1 mps 739 mmHg 89%

    Day after tomorrow, 26 January, Saturday

    Time Temperature Precipitation Wind Pressure Humidity
    00:00 +24°C° 0 mm 1 mps 738 mmHg 88%
    01:00 +24°C° 0 mm 1 mps 738 mmHg 87%
    02:00 +23°C° 0 mm 1 mps 737 mmHg 86%
    03:00 +23°C° 0 mm 1 mps 737 mmHg 83%
    04:00 +23°C° 0 mm 2 mps 738 mmHg 80%
    05:00 +23°C° 0 mm 2 mps 738 mmHg 77%
    06:00 +24°C° 0 mm 1 mps 738 mmHg 69%
    07:00 +26°C° 0 mm 1 mps 739 mmHg 61%
    08:00 +27°C° 0 mm 1 mps 739 mmHg 53%
    09:00 +29°C° 0 mm 1 mps 739 mmHg 48%
    10:00 +32°C° 0 mm 2 mps 739 mmHg 42%
    11:00 +35°C° 0 mm 2 mps 739 mmHg 37%
    12:00 +34°C° 0 mm 3 mps 738 mmHg 37%
    13:00 +34°C° 0 mm 3 mps 737 mmHg 38%
    14:00 +34°C° 0 mm 4 mps 736 mmHg 39%
    15:00 +33°C° 0 mm 4 mps 736 mmHg 46%
    16:00 +30°C° 0 mm 3 mps 736 mmHg 53%
    17:00 +29°C° 0 mm 2 mps 736 mmHg 60%
    18:00 +27°C° 0 mm 2 mps 736 mmHg 67%
    19:00 +26°C° 0 mm 2 mps 737 mmHg 74%
    20:00 +25°C° 0 mm 1 mps 738 mmHg 80%
    21:00 +24°C° 0 mm 1 mps 738 mmHg 81%
    22:00 +24°C° 0 mm 1 mps 738 mmHg 81%
    23:00 +24°C° 0 mm 1 mps 738 mmHg 81%

    27 January, Sunday

    Time Temperature Precipitation Wind Pressure Humidity
    00:00 +23°C° 0 mm 1 mps 737 mmHg 80%
    01:00 +23°C° 0 mm 1 mps 736 mmHg 79%
    02:00 +23°C° 0 mm 1 mps 736 mmHg 79%
    03:00 +22°C° 0 mm 1 mps 736 mmHg 77%
    04:00 +22°C° 0 mm 1 mps 736 mmHg 76%
    05:00 +22°C° 0 mm 1 mps 736 mmHg 74%
    06:00 +24°C° 0 mm 1 mps 736 mmHg 67%
    07:00 +25°C° 0 mm 1 mps 737 mmHg 60%
    08:00 +27°C° 0 mm 1 mps 737 mmHg 53%
    09:00 +29°C° 0 mm 1 mps 737 mmHg 47%
    10:00 +31°C° 0 mm 2 mps 737 mmHg 40%
    11:00 +34°C° 0 mm 2 mps 737 mmHg 34%
    12:00 +34°C° 0 mm 3 mps 736 mmHg 36%
    13:00 +34°C° 0 mm 3 mps 735 mmHg 38%
    14:00 +34°C° 0 mm 4 mps 734 mmHg 40%
    15:00 +31°C° 0 mm 3 mps 734 mmHg 48%
    16:00 +30°C° 0 mm 3 mps 735 mmHg 57%
    17:00 +28°C° 0 mm 2 mps 735 mmHg 66%
    18:00 +27°C° 0 mm 2 mps 735 mmHg 74%
    19:00 +25°C° 0 mm 1 mps 736 mmHg 81%
    20:00 +22°C° 0 mm 0 mps 737 mmHg 89%
    21:00 +22°C° 0.2 mm 0 mps 737 mmHg 90%
    22:00 +24°C° 0.2 mm 1 mps 737 mmHg 91%
    23:00 +24°C° 0.2 mm 1 mps 737 mmHg 91%

    28 January, Monday

    Time Temperature Precipitation Wind Pressure Humidity
    00:00 +23°C° 0.2 mm 1 mps 737 mmHg 91%
    01:00 +23°C° 0.2 mm 1 mps 736 mmHg 91%
    02:00 +22°C° 0.2 mm 1 mps 736 mmHg 90%
    03:00 +22°C° 0 mm 1 mps 736 mmHg 89%
    04:00 +22°C° 0 mm 1 mps 736 mmHg 88%
    05:00 +20°C° 0 mm 2 mps 736 mmHg 87%
    06:00 +23°C° 0 mm 1 mps 736 mmHg 79%
    07:00 +24°C° 0 mm 1 mps 737 mmHg 71%
    08:00 +26°C° 0 mm 1 mps 737 mmHg 62%
    09:00 +28°C° 0 mm 1 mps 737 mmHg 53%
    10:00 +31°C° 0 mm 1 mps 737 mmHg 45%
    11:00 +34°C° 0 mm 2 mps 737 mmHg 36%
    12:00 +34°C° 0 mm 2 mps 736 mmHg 37%
    13:00 +34°C° 0 mm 3 mps 735 mmHg 38%
    14:00 +34°C° 0 mm 4 mps 735 mmHg 40%
    15:00 +31°C° 0 mm 3 mps 735 mmHg 47%
    16:00 +29°C° 0 mm 3 mps 735 mmHg 54%
    17:00 +28°C° 0 mm 2 mps 735 mmHg 62%
    18:00 +27°C° 0 mm 2 mps 735 mmHg 68%
    19:00 +25°C° 0 mm 1 mps 736 mmHg 74%
    20:00 +24°C° 0 mm 1 mps 737 mmHg 80%
    21:00 +23°C° 0 mm 1 mps 736 mmHg 80%
    22:00 +23°C° 0 mm 1 mps 736 mmHg 80%
    23:00 +23°C° 0 mm 2 mps 736 mmHg 80%

    29 January, Tuesday

    Time Temperature Precipitation Wind Pressure Humidity
    00:00 +21°C° 0 mm 2 mps 736 mmHg 80%
    01:00 +21°C° 0 mm 2 mps 735 mmHg 79%
    02:00 +20°C° 0 mm 2 mps 735 mmHg 78%
    03:00 +20°C° 0 mm 2 mps 735 mmHg 77%
    04:00 +20°C° 0 mm 2 mps 735 mmHg 75%
    05:00 +20°C° 0 mm 1 mps 735 mmHg 74%
    06:00 +22°C° 0 mm 1 mps 736 mmHg 67%
    07:00 +24°C° 0 mm 1 mps 736 mmHg 60%
    08:00 +26°C° 0 mm 1 mps 737 mmHg 52%
    09:00 +28°C° 0 mm 1 mps 737 mmHg 47%
    10:00 +30°C° 0 mm 2 mps 736 mmHg 42%
    11:00 +33°C° 0 mm 3 mps 736 mmHg 36%
    12:00 +33°C° 0 mm 3 mps 736 mmHg 37%
    13:00 +33°C° 0 mm 3 mps 735 mmHg 37%
    14:00 +33°C° 0 mm 3 mps 734 mmHg 37%
    15:00 +30°C° 0 mm 3 mps 734 mmHg 44%
    16:00 +29°C° 0 mm 3 mps 735 mmHg 50%
    17:00 +27°C° 0 mm 2 mps 735 mmHg 57%
    18:00 +26°C° 0 mm 2 mps 735 mmHg 64%
    19:00 +24°C° 0 mm 1 mps 736 mmHg 71%
    20:00 +23°C° 0 mm 1 mps 737 mmHg 78%
    21:00 +22°C° 0 mm 1 mps 737 mmHg 79%
    22:00 +22°C° 0 mm 1 mps 737 mmHg 80%
    23:00 +22°C° 0 mm 1 mps 737 mmHg 81%
    Show more